Location: Unspecified
(0.0000°N, 0.0000°E)
Time: 21:34:54
(UTC+00:00)

Hubble Space Telescope - Pass Details

Date: 22 March 2023
Orbit: 527 x 530 km, 28.5° (Epoch: 30 March)

Event Time Altitude Azimuth Distance (km) Brightness Sun altitude
Rises 19:52:51 0° 237° (WSW) 2,655 5.1 -26.5°
Reaches altitude 10° 19:55:06 10° 235° (SW) 1,765 4.1 -27.1°
Enters shadow 19:57:21 31° 230° (SW) 929 2.3 -27.6°
